Sheridan, WY

3:00 AM MDT on May 28, 2017 (GMT -0600)
Sheridan County

Weather History for KSHR - March, 2013

Change the Weather History Date:

Friday, March 15, 2013

  Actual Average Record
Temperature  
Mean Temperature 50 °F 35 °F  
Max Temperature 63 °F 48 °F 76 °F (2015)
Min Temperature 36 °F 22 °F -2 °F (1943)
Degree Days  
Heating Degree Days 15 30  
Month to date heating degree days 448 485  
Since 1 July heating degree days 5771 6020  
Cooling Degree Days 0 0  
Month to date cooling degree days 0 0  
Year to date cooling degree days 0 0  
Moisture  
Dew Point 28 °F    
Average Humidity 46    
Maximum Humidity 70    
Minimum Humidity 21    
Precipitation  
Precipitation 0.00 in 0.03 in 0.54 in (1955)
Month to date precipitation 0.06 0.40  
Year to date precipitation 1.81 1.50  
Sea Level Pressure  
Sea Level Pressure 29.91 in    
Wind  
Wind Speed 8 mph (NW)    
Max Wind Speed 28 mph    
Max Gust Speed 36 mph    
Visibility 10 miles    
Events      
T = Trace of Precipitation, MM = Missing Value Source: NWS Daily Summary

Daily Weather History Graph

Daily Weather History Graph

Search for Another Location

Airport or City:

Trip Planner

Search our weather history database for the weather conditions in past years. The results will help you decide how hot, cold, wet, or windy it might be!

Date:

Astronomy

Mar. 15, 2013 Rise Set
Actual Time 7:19 AM MDT 7:14 PM MDT
Civil Twilight 6:50 AM MDT 7:43 PM MDT
Nautical Twilight 6:16 AM MDT 8:17 PM MDT
Astronomical Twilight 5:42 AM MDT 8:52 PM MDT
Moon 9:00 AM MDT (3/15) 11:43 PM MDT (3/15)
Length of Visible Light 12h 52m
Length of Day
11h 54m
Waxing Crescent, 16% of the Moon is Illuminated
Mar 15
Waxing Crescent
Mar 19
First Quarter
Mar 27
Full
Apr 2
Last Quarter
Apr 10
New

Hourly Weather History & Observations

Time (MDT) Temp. Windchill Dew Point Humidity Pressure Visibility Wind Dir Wind Speed Gust Speed Precip Events Conditions
12:53 AM 41.0 °F - 30.0 °F 65% 29.93 in 10.0 mi Calm Calm - N/A   Clear
1:53 AM 43.0 °F 41.3 °F 30.0 °F 60% 29.89 in 10.0 mi SSE 3.5 mph - N/A   Clear
2:53 AM 44.1 °F 40.8 °F 28.9 °F 55% 29.86 in 10.0 mi SSW 5.8 mph - N/A   Clear
3:53 AM 41.0 °F - 30.0 °F 65% 29.84 in 10.0 mi Calm Calm - N/A   Clear
4:53 AM 43.0 °F - 28.9 °F 58% 29.82 in 10.0 mi Calm Calm - N/A   Clear
5:53 AM 37.9 °F 33.5 °F 28.9 °F 70% 29.85 in 10.0 mi North 5.8 mph - N/A   Clear
6:53 AM 46.9 °F - 26.1 °F 44% 29.86 in 10.0 mi WNW 9.2 mph - N/A   Scattered Clouds
7:53 AM 41.0 °F 37.1 °F 30.0 °F 65% 29.91 in 10.0 mi North 5.8 mph - N/A   Scattered Clouds
8:53 AM 50.0 °F - 30.9 °F 48% 29.90 in 10.0 mi Calm Calm - N/A   Clear
9:53 AM 55.9 °F - 27.0 °F 33% 29.90 in 10.0 mi Calm Calm - N/A   Clear
10:53 AM 60.1 °F - 28.0 °F 30% 29.88 in 10.0 mi Calm Calm - N/A   Partly Cloudy
11:53 AM 61.0 °F - 24.1 °F 24% 29.89 in 10.0 mi NNW 16.1 mph 23.0 mph N/A   Partly Cloudy
12:53 PM 62.1 °F - 25.0 °F 24% 29.88 in 10.0 mi WNW 13.8 mph 20.7 mph N/A   Scattered Clouds
1:53 PM 62.1 °F - 27.0 °F 26% 29.87 in 10.0 mi NNW 9.2 mph 21.9 mph N/A   Scattered Clouds
2:53 PM 63.0 °F - 27.0 °F 26% 29.84 in 10.0 mi NNW 12.7 mph - N/A   Scattered Clouds
3:53 PM 62.6 °F - 23.0 °F 22% 29.88 in 10.0 mi NNW 21.9 mph 32.2 mph N/A   Scattered Clouds
4:53 PM 57.9 °F - 24.1 °F 27% 29.89 in 10.0 mi NW 16.1 mph 26.5 mph N/A   Mostly Cloudy
5:53 PM 55.9 °F - 26.1 °F 32% 29.92 in 10.0 mi NW 15.0 mph - N/A   Overcast
6:53 PM 50.0 °F - 28.0 °F 43% 29.94 in 10.0 mi NNW 11.5 mph - N/A   Partly Cloudy
7:53 PM 46.0 °F 41.4 °F 30.0 °F 54% 30.02 in 10.0 mi NNE 9.2 mph - N/A   Overcast
8:53 PM 44.1 °F 39.0 °F 30.0 °F 58% 30.03 in 10.0 mi NNW 9.2 mph - N/A   Mostly Cloudy
9:53 PM 41.0 °F 37.1 °F 30.0 °F 65% 30.03 in 10.0 mi North 5.8 mph - N/A   Overcast
10:53 PM 41.0 °F 36.4 °F 30.9 °F 67% 30.02 in 10.0 mi West 6.9 mph - N/A   Overcast
11:53 PM 39.9 °F - 30.0 °F 68% 30.02 in 10.0 mi Calm Calm - N/A   Scattered Clouds